DW8945 Weather Reports


Display with metric or nautical units.
time (UTC)temp
F
wind
direction
speed
MPH
gust
MPH
rain 1hr
in
rain 24hr
in
rain mn
in
humidity
%
barometer
mb
20260503203403 54 350 2.0 10.0 0.00 0.00 0.00 39 1005.2
20260503202848 54 286 3.0 11.0 0.00 0.00 0.00 40 1005.1
20260503202354 54 40 4.0 11.0 0.00 0.00 0.00 40 1005.0
20260503201859 54 355 1.0 9.0 0.00 0.00 0.00 41 1004.9
20260503201425 54 32 5.0 12.0 0.00 0.00 0.00 40 1004.8
20260503200910 54 304 2.0 12.0 0.00 0.00 0.00 41 1005.0
20260503200408 54 334 1.0 12.0 0.00 0.00 0.00 41 1005.0
20260503195858 54 344 4.0 11.0 0.00 0.00 0.00 41 1004.9
20260503195402 54 294 4.0 10.0 0.00 0.00 0.00 43 1005.0
20260503194846 54 41 4.0 15.0 0.00 0.00 0.00 43 1005.0
20260503194354 54 316 4.0 15.0 0.00 0.00 0.00 43 1005.0
20260503193857 54 13 4.0 9.0 0.00 0.00 0.00 43 1004.9
20260503193400 54 59 4.0 11.0 0.00 0.00 0.00 42 1005.0
20260503192903 54 325 4.0 11.0 0.00 0.00 0.00 42 1005.0
20260503192348 54 17 2.0 17.0 0.00 0.00 0.00 44 1005.0
20260503191853 54 360 4.0 17.0 0.00 0.00 0.00 44 1005.0
20260503191358 54 298 3.0 14.0 0.00 0.00 0.00 44 1005.0
20260503190844 54 303 4.0 10.0 0.00 0.00 0.00 46 1005.0
20260503190401 54 325 3.0 10.0 0.00 0.00 0.00 46 1005.0
20260503185847 54 11 2.0 10.0 0.00 0.00 0.00 46 1005.1
20260503185353 54 309 3.0 14.0 0.00 0.00 0.00 45 1005.1
20260503184858 55 344 3.0 8.0 0.00 0.00 0.00 46 1005.1
20260503184403 55 302 2.0 7.0 0.00 0.00 0.00 47 1005.0
20260503183852 54 344 1.0 8.0 0.00 0.00 0.00 48 1005.1
20260503183356 53 355 1.0 8.0 0.00 0.00 0.00 49 1005.2
20260503182903 53 289 3.0 8.0 0.00 0.00 0.00 49 1005.2
20260503182349 52 342 4.0 9.0 0.00 0.00 0.00 50 1005.2
20260503181853 52 318 2.0 12.0 0.00 0.00 0.00 51 1005.2
20260503181400 52 355 5.0 12.0 0.00 0.00 0.00 51 1005.3
20260503180846 52 355 3.0 11.0 0.00 0.00 0.00 51 1005.3
20260503180346 52 320 2.0 11.0 0.00 0.00 0.00 52 1005.4
20260503175917 52 75 2.0 11.0 0.00 0.00 0.00 54 1005.3
20260503175421 52 38 4.0 16.0 0.00 0.00 0.00 52 1005.3
20260503174904 53 326 3.0 16.0 0.00 0.00 0.00 52 1005.2
20260503174351 53 27 3.0 9.0 0.00 0.00 0.00 52 1005.2
20260503173858 53 13 5.0 16.0 0.00 0.00 0.00 51 1005.1
20260503173403 53 323 4.0 16.0 0.00 0.00 0.00 51 1005.1
20260503172847 53 325 3.0 14.0 0.00 0.00 0.00 51 1005.2
20260503172354 53 28 4.0 14.0 0.00 0.00 0.00 51 1005.2
20260503171857 53 295 5.0 16.0 0.00 0.00 0.00 51 1005.3
20260503171403 53 337 5.0 16.0 0.00 0.00 0.00 50 1005.2
20260503170850 53 340 4.0 11.0 0.00 0.00 0.00 52 1005.0
20260503170352 52 345 3.0 11.0 0.00 0.00 0.00 52 1005.0
20260503150856 47 336 4.0 10.0 0.00 0.00 0.00 81 1005.3
20260503150359 46 300 4.0 15.0 0.00 0.00 0.00 83 1005.4
20260503131346 46 319 2.0 8.0 0.00 0.00 0.00 76 1005.6
20260503130851 46 157 3.0 8.0 0.00 0.00 0.00 75 1005.6
20260503130353 47 346 2.0 8.0 0.00 0.00 0.00 75 1005.5
20260503110345 44 286 3.0 9.0 0.00 0.00 0.00 79 1006.1
20260503090343 46 346 3.0 6.0 0.00 0.00 0.00 79 1006.4
20260503081349 46 346 1.0 5.0 0.00 0.00 0.00 79 1006.7
20260503080851 46 344 1.0 4.0 0.00 0.00 0.00 79 1006.9
20260503080350 46 51 1.0 5.0 0.00 0.00 0.00 78 1007.2
20260503072848 47 355 1.0 4.0 0.00 0.00 0.00 80 1007.4
20260503072351 47 10 0.0 5.0 0.00 0.00 0.00 80 1007.2
20260503071852 47 360 1.0 5.0 0.00 0.00 0.00 80 1007.4
20260503071418 47 325 1.0 6.0 0.00 0.00 0.00 80 1007.5
20260503070842 47 94 2.0 6.0 0.00 0.00 0.00 80 1007.7
20260503070402 47 323 1.0 5.0 0.00 0.00 0.00 80 1007.5
20260503054852 48 313 0.0 7.0 0.00 0.00 0.00 76 1008.6
20260503054414 48 313 1.0 7.0 0.00 0.00 0.00 75 1008.6
20260503053920 49 343 2.0 7.0 0.00 0.00 0.00 75 1008.5
20260503053345 49 318 1.0 5.0 0.00 0.00 0.00 75 1008.4
20260503052853 49 360 1.0 7.0 0.00 0.00 0.00 74 1008.5
20260503052420 49 342 2.0 7.0 0.00 0.00 0.00 74 1008.5
20260503051844 49 315 2.0 9.0 0.00 0.00 0.00 73 1008.4
20260503051349 49 342 2.0 9.0 0.00 0.00 0.00 73 1008.6
20260503050858 49 319 1.0 4.0 0.00 0.00 0.00 72 1008.5
20260503050342 49 321 1.0 7.0 0.00 0.00 0.00 72 1008.8
20260503045908 49 320 2.0 8.0 0.00 0.00 0.00 72 1008.9
20260503045353 50 58 3.0 8.0 0.00 0.00 0.00 72 1008.8
20260503044917 50 300 2.0 8.0 0.00 0.00 0.00 72 1008.8
20260503044343 50 343 2.0 8.0 0.00 0.00 0.00 71 1008.8
20260503043852 50 355 1.0 7.0 0.00 0.00 0.00 72 1008.9
20260503043356 50 5 1.0 8.0 0.00 0.00 0.00 72 1008.9
20260503042843 50 317 2.0 9.0 0.00 0.00 0.00 73 1009.1
20260503042349 50 55 2.0 9.0 0.00 0.00 0.00 75 1009.2
20260503041915 50 355 3.0 9.0 0.00 0.00 0.00 76 1009.2
20260503041342 50 332 2.0 9.0 0.00 0.00 0.00 78 1009.3
20260503040908 50 325 4.0 9.0 0.00 0.00 0.00 80 1009.4
20260503040403 50 281 2.0 6.0 0.00 0.00 0.00 82 1009.5
20260503035906 50 324 2.0 4.0 0.00 0.00 0.00 83 1009.2
20260503035352 51 324 1.0 5.0 0.00 0.00 0.00 83 1009.4
20260503034917 51 322 2.0 5.0 0.00 0.00 0.00 83 1009.4
20260503034403 51 327 1.0 5.0 0.00 0.00 0.00 84 1009.3
20260503033847 51 329 1.0 5.0 0.00 0.00 0.00 84 1009.4
20260503033351 51 324 1.0 5.0 0.00 0.00 0.00 84 1009.4
20260503032857 51 324 1.0 5.0 0.00 0.00 0.00 84 1009.5
20260503032341 51 340 0.0 5.0 0.00 0.00 0.00 83 1009.4
20260503031847 51 300 1.0 5.0 0.00 0.00 0.00 84 1009.5
20260503031352 51 230 1.0 2.0 0.00 0.00 0.00 83 1009.5
20260503030858 51 230 0.0 2.0 0.00 0.00 0.00 83 1009.4
20260503030422 51 227 0.0 1.0 0.00 0.00 0.00 83 1009.4
20260503025851 51 227 0.0 0.0 0.00 0.00 0.00 83 1009.4
20260503025357 51 227 0.0 0.0 0.00 0.00 0.00 83 1009.4
20260503024901 51 227 0.0 0.0 0.00 0.00 0.00 83 1009.3
20260503024347 51 227 0.0 0.0 0.00 0.00 0.00 83 1009.4
20260503023854 51 227 0.0 0.0 0.00 0.00 0.00 83 1009.4
20260503023420 51 227 0.0 1.0 0.00 0.00 0.00 83 1009.4
20260503022845 51 227 0.0 2.0 0.00 0.00 0.00 83 1009.3
20260503022411 51 227 0.0 0.0 0.00 0.00 0.00 83 1009.4
20260503021853 52 227 0.0 0.0 0.00 0.00 0.00 83 1009.4
20260503021358 52 227 0.0 0.0 0.00 0.00 0.00 83 1009.5
20260503020844 52 227 0.0 0.0 0.00 0.00 0.00 83 1009.6
20260503020345 52 227 0.0 0.0 0.00 0.00 0.00 83 1009.8
20260503015855 52 227 0.0 0.0 0.00 0.00 0.00 83 1009.8
20260503015341 52 227 0.0 0.0 0.00 0.00 0.00 82 1009.9
20260503014846 52 227 0.0 0.0 0.00 0.00 0.00 82 1009.9
20260503014353 52 227 0.0 0.0 0.00 0.00 0.00 82 1010.0
20260503013900 52 227 0.0 0.0 0.00 0.00 0.00 82 1010.0
20260503013405 52 227 0.0 2.0 0.00 0.00 0.00 82 1010.0
20260503012849 52 227 0.0 2.0 0.00 0.00 0.00 82 1009.9
20260503012355 52 227 0.0 0.0 0.00 0.00 0.00 82 1010.0
20260503011858 52 227 0.0 3.0 0.00 0.00 0.00 82 1010.0
20260503011344 52 227 1.0 3.0 0.00 0.00 0.00 82 1009.9
20260503010909 52 219 0.0 2.0 0.00 0.00 0.00 82 1009.9
20260503010409 52 219 0.0 2.0 0.00 0.00 0.00 82 1009.7
20260503005900 52 219 0.0 1.0 0.00 0.00 0.00 82 1009.6
20260503005346 52 219 0.0 1.0 0.00 0.00 0.00 82 1009.5
20260503004849 52 219 0.0 1.0 0.00 0.00 0.00 82 1009.4
20260503004355 52 219 0.0 1.0 0.00 0.00 0.00 82 1009.4
20260503003841 52 219 0.0 1.0 0.00 0.00 0.00 82 1009.4
20260503003346 52 219 0.0 1.0 0.00 0.00 0.00 82 1009.4
20260503002850 52 219 0.0 4.0 0.00 0.00 0.00 81 1009.4
20260503002418 52 219 1.0 4.0 0.00 0.00 0.00 81 1009.4
20260503001841 52 218 0.0 3.0 0.00 0.00 0.00 81 1009.4
20260503001346 52 218 0.0 4.0 0.00 0.00 0.00 81 1009.3
20260503000851 52 218 1.0 4.0 0.00 0.00 0.00 81 1009.3
20260503000351 52 216 1.0 3.0 0.00 0.00 0.00 81 1009.2
20260502235842 52 216 1.0 4.0 0.00 0.00 0.00 81 1009.2
20260502235349 52 216 3.0 4.0 0.00 0.00 0.00 81 1009.2
20260502234854 52 292 1.0 3.0 0.00 0.00 0.00 81 1009.2
20260502234342 52 292 0.0 2.0 0.00 0.00 0.00 81 1009.1
20260502233849 52 292 0.0 2.0 0.00 0.00 0.00 81 1009.1
20260502233347 53 292 0.0 2.0 0.00 0.00 0.00 81 1009.1
20260502232855 52 292 0.0 3.0 0.00 0.00 0.00 81 1009.1
20260502232341 52 292 1.0 4.0 0.00 0.00 0.00 81 1009.1
20260502231907 52 296 0.0 2.0 0.00 0.00 0.00 81 1009.0
20260502231351 52 296 0.0 2.0 0.00 0.00 0.00 81 1009.0
20260502230910 52 296 0.0 2.0 0.00 0.00 0.00 81 1009.0
20260502230350 52 296 0.0 2.0 0.00 0.00 0.00 81 1009.0
20260502225840 52 296 1.0 3.0 0.00 0.00 0.00 82 1009.0
20260502225346 53 296 0.0 3.0 0.00 0.00 0.00 82 1009.0
20260502224851 53 296 0.0 1.0 0.00 0.00 0.00 82 1009.1
20260502224357 53 296 0.0 3.0 0.00 0.00 0.00 82 1009.0
20260502223920 53 296 0.0 4.0 0.00 0.00 0.00 81 1009.0
20260502223343 53 324 1.0 4.0 0.00 0.00 0.00 81 1009.1
20260502222849 53 325 2.0 3.0 0.00 0.00 0.00 81 1009.1
20260502222357 53 326 1.0 5.0 0.00 0.00 0.00 80 1009.0
20260502221840 53 326 3.0 5.0 0.00 0.00 0.00 80 1009.0
20260502221346 54 327 0.0 2.0 0.00 0.00 0.00 79 1009.1
20260502220854 54 327 0.0 8.0 0.00 0.00 0.00 77 1009.1
20260502220412 54 311 2.0 8.0 0.00 0.00 0.00 76 1009.1
20260502215901 54 311 3.0 8.0 0.00 0.00 0.00 74 1009.1
20260502215348 55 325 4.0 8.0 0.00 0.00 0.00 73 1009.1
20260502214912 55 336 0.0 8.0 0.00 0.00 0.00 72 1009.1
20260502214356 55 336 2.0 8.0 0.00 0.00 0.00 70 1009.1
20260502213905 55 311 3.0 7.0 0.00 0.00 0.00 69 1009.1
20260502213349 56 233 3.0 9.0 0.00 0.00 0.00 68 1009.0
20260502212855 56 237 4.0 11.0 0.00 0.00 0.00 67 1009.0
20260502212342 56 195 3.0 11.0 0.00 0.00 0.00 67 1008.9
20260502211850 56 229 4.0 8.0 0.00 0.00 0.00 67 1008.9
20260502211355 57 232 2.0 8.0 0.00 0.00 0.00 66 1008.9
20260502210841 57 232 3.0 7.0 0.00 0.00 0.00 66 1008.8
20260502210343 57 234 3.0 9.0 0.00 0.00 0.00 65 1008.8
20260502205916 58 219 6.0 10.0 0.00 0.00 0.00 64 1008.9
20260502205402 58 219 2.0 10.0 0.00 0.00 0.00 64 1008.9
20260502204845 58 214 3.0 8.0 0.00 0.00 0.00 64 1008.8
20260502204352 58 233 4.0 12.0 0.00 0.00 0.00 63 1008.8
20260502203859 58 132 5.0 12.0 0.00 0.00 0.00 62 1008.9